Moorpark, CA (93020)

9:33 PM PDT on August 24, 2016 (GMT -0700)
APRSWXNET | | Change Station

Elev 538 ft 34.29 °N, 118.88 °W | Updated 25 minutes ago

Clear
Clear
65 °F
Feels Like 65 °F
N
0
Wind Variable Wind from West
Gusts 0.0 mph

Today
High -- | Low -- °F
--% Chance of Precip.
Yesterday
High -- | Low -- °F
Precip. -- in
Pressure 29.96 in
Visibility 8.0 miles
Clouds Clear
Dew Point 58 °F
Humidity 78%
Rainfall in
Snow Depth Not available.
6:23 AM 7:31 PM
Waning Gibbous, 50% visible
METAR KCMA 250355Z 23004KT 8SM CLR 18/15 A2994 RMK AO2 SLP146 T01780150
Pressure 29.96 in
Visibility 8.0 miles
Clouds Clear
Dew Point 58 °F
Humidity 78%
Rainfall in
Snow Depth Not available.
6:23 AM 7:31 PM
Waning Gibbous, 50% visible
METAR KCMA 250355Z 23004KT 8SM CLR 18/15 A2994 RMK AO2 SLP146 T01780150

10-Day Weather Forecast

Almanac

Astronomy

Aug. 24, 2016 Rise Set
Actual Time
Civil Twilight
Nautical Twilight
Astronomical Twilight
Moon
Length of Visible Light
Length of Day
Tomorrow will be .
, % of the Moon is Illuminated

Today's Extremes

State Highs State Lows

Community

WunderPhotos

Upload Photos

1,934,796 photos uploaded!

WunderBlog® & News

Nearby

Air Quality

  Air Quality AQ Index Pollutant
Not available.

Snow Depth

Station Depth Elevation

Earthquake Activity

City Distance Mag. Time & Date
Minimum magnitude displayed is 2.5.

Coastal Water Temperatures

Place Temperature

Stations

Nearby Weather Stations

Station Location Temp. Windchill Dew Point Humidity Wind Precip. Elev Updated Type
                   

Watches & Warnings

There are currently no watches in effect.